Time,TemperatureF,DewpointF,PressureIn,WindDirection,WindDirectionDegrees,WindSpeedMPH,WindSpeedGustMPH,Humidity,HourlyPrecipIn,Conditions,Clouds,dailyrainin,SoftwareType,DateUTC
2013-05-14 00:05:00,66.7,54.6,29.96,West,270,0.0,-999.0,65,-99.99,,,0.00,Acu-Link.com,2013-05-14 04:05:00,
2013-05-14 00:21:00,65.7,54.0,29.96,ESE,112,0.0,-999.0,66,-99.99,,,0.00,Acu-Link.com,2013-05-14 04:21:00,
2013-05-14 00:36:00,64.6,53.4,29.96,ESE,112,0.0,-999.0,67,-99.99,,,0.00,Acu-Link.com,2013-05-14 04:36:00,
2013-05-14 00:51:00,64.2,53.8,29.96,West,270,0.0,-999.0,69,-99.99,,,0.00,Acu-Link.com,2013-05-14 04:51:00,
2013-05-14 01:06:00,64.8,53.6,29.97,SSW,202,0.0,-999.0,67,-99.99,,,0.00,Acu-Link.com,2013-05-14 05:06:00,
2013-05-14 01:22:00,65.3,53.2,29.97,North,0,0.0,-999.0,65,-99.99,,,0.00,Acu-Link.com,2013-05-14 05:22:00,
2013-05-14 01:37:00,66.0,53.9,29.96,SSE,157,0.0,-999.0,65,-99.99,,,0.00,Acu-Link.com,2013-05-14 05:37:00,
2013-05-14 01:52:00,66.7,53.7,29.96,WNW,292,1.1,-999.0,63,-99.99,,,0.00,Acu-Link.com,2013-05-14 05:52:00,
2013-05-14 02:07:00,67.3,53.4,29.96,SSE,157,0.0,-999.0,61,-99.99,,,0.00,Acu-Link.com,2013-05-14 06:07:00,
2013-05-14 02:23:00,66.2,52.3,29.96,SSE,157,0.0,-999.0,61,-99.99,,,0.00,Acu-Link.com,2013-05-14 06:23:00,
2013-05-14 02:38:00,65.5,52.1,29.96,WNW,292,0.0,-999.0,62,-99.99,,,0.00,Acu-Link.com,2013-05-14 06:38:00,
2013-05-14 02:53:00,64.2,51.3,29.96,SE,135,0.0,-999.0,63,-99.99,,,0.00,Acu-Link.com,2013-05-14 06:53:00,
2013-05-14 03:09:00,63.9,51.1,29.97,South,180,0.0,-999.0,63,-99.99,,,0.00,Acu-Link.com,2013-05-14 07:09:00,
2013-05-14 03:24:00,63.3,50.1,29.97,North,0,0.0,-999.0,62,-99.99,,,0.00,Acu-Link.com,2013-05-14 07:24:00,
2013-05-14 03:39:00,64.9,51.1,29.96,SSE,157,0.0,-999.0,61,-99.99,,,0.00,Acu-Link.com,2013-05-14 07:39:00,
2013-05-14 03:54:00,64.9,49.8,29.97,South,180,1.1,-999.0,58,-99.99,,,0.00,Acu-Link.com,2013-05-14 07:54:00,
2013-05-14 04:10:00,64.9,49.8,29.97,West,270,0.0,-999.0,58,-99.99,,,0.00,Acu-Link.com,2013-05-14 08:10:00,
2013-05-14 04:25:00,64.8,49.7,29.97,West,270,0.0,-999.0,58,-99.99,,,0.00,Acu-Link.com,2013-05-14 08:25:00,
2013-05-14 04:40:00,64.0,49.4,29.96,SW,225,0.0,-999.0,59,-99.99,,,0.00,Acu-Link.com,2013-05-14 08:40:00,
2013-05-14 04:55:00,62.4,52.1,29.97,West,270,1.1,-999.0,69,-99.99,,,0.00,Acu-Link.com,2013-05-14 08:55:00,
2013-05-14 05:10:00,60.6,52.3,29.96,WNW,292,0.0,-999.0,74,-99.99,,,0.00,Acu-Link.com,2013-05-14 09:10:00,
2013-05-14 05:25:00,59.7,52.8,29.97,WNW,292,0.0,-999.0,78,-99.99,,,0.00,Acu-Link.com,2013-05-14 09:25:00,
2013-05-14 05:40:00,59.2,53.0,29.97,WNW,292,0.0,-999.0,80,-99.99,,,0.00,Acu-Link.com,2013-05-14 09:40:00,
2013-05-14 05:56:00,58.8,53.0,29.97,West,270,0.0,-999.0,81,-99.99,,,0.00,Acu-Link.com,2013-05-14 09:56:00,
2013-05-14 06:11:00,58.6,53.1,29.99,WSW,247,0.0,-999.0,82,-99.99,,,0.00,Acu-Link.com,2013-05-14 10:11:00,
2013-05-14 06:26:00,58.5,53.4,29.98,West,270,0.0,-999.0,83,-99.99,,,0.00,Acu-Link.com,2013-05-14 10:26:00,
2013-05-14 06:41:00,58.3,53.5,29.99,West,270,0.0,-999.0,84,-99.99,,,0.00,Acu-Link.com,2013-05-14 10:41:00,
2013-05-14 06:57:00,58.6,54.4,30.00,West,270,0.0,-999.0,86,-99.99,,,0.00,Acu-Link.com,2013-05-14 10:57:00,
2013-05-14 07:12:00,59.5,55.3,30.00,West,270,0.0,-999.0,86,-99.99,,,0.00,Acu-Link.com,2013-05-14 11:12:00,
2013-05-14 07:27:00,61.3,56.1,30.00,West,270,0.0,-999.0,83,-99.99,,,0.00,Acu-Link.com,2013-05-14 11:27:00,
2013-05-14 07:42:00,64.0,57.0,30.01,WNW,292,0.0,-999.0,78,-99.99,,,0.00,Acu-Link.com,2013-05-14 11:42:00,
2013-05-14 07:58:00,66.9,57.2,30.02,WNW,292,0.0,-999.0,71,-99.99,,,0.00,Acu-Link.com,2013-05-14 11:58:00,
2013-05-14 08:13:00,68.9,56.6,30.02,West,270,0.0,-999.0,65,-99.99,,,0.00,Acu-Link.com,2013-05-14 12:13:00,
2013-05-14 08:28:00,71.4,57.2,30.03,West,270,0.0,-999.0,61,-99.99,,,0.00,Acu-Link.com,2013-05-14 12:28:00,
2013-05-14 08:44:00,73.8,57.1,30.02,West,270,0.0,-999.0,56,-99.99,,,0.00,Acu-Link.com,2013-05-14 12:44:00,
2013-05-14 08:59:00,75.9,57.5,30.02,WNW,292,1.1,-999.0,53,-99.99,,,0.00,Acu-Link.com,2013-05-14 12:59:00,
2013-05-14 09:15:00,77.5,57.4,30.02,NNE,22,2.2,-999.0,50,-99.99,,,0.00,Acu-Link.com,2013-05-14 13:15:00,
2013-05-14 09:30:00,78.8,58.0,30.03,WNW,292,1.7,-999.0,49,-99.99,,,0.00,Acu-Link.com,2013-05-14 13:30:00,
2013-05-14 09:45:00,79.3,57.9,30.03,WNW,292,1.7,-999.0,48,-99.99,,,0.00,Acu-Link.com,2013-05-14 13:45:00,
2013-05-14 10:00:00,79.0,57.6,30.03,WNW,292,0.0,-999.0,48,-99.99,,,0.00,Acu-Link.com,2013-05-14 14:00:00,
2013-05-14 10:16:00,82.4,57.6,30.03,SE,135,3.7,-999.0,43,-99.99,,,0.00,Acu-Link.com,2013-05-14 14:16:00,
2013-05-14 10:31:00,80.2,56.9,30.04,SE,135,2.2,-999.0,45,-99.99,,,0.00,Acu-Link.com,2013-05-14 14:31:00,
2013-05-14 10:46:00,83.3,57.8,30.05,NNW,337,5.8,-999.0,42,-99.99,,,0.00,Acu-Link.com,2013-05-14 14:46:00,
2013-05-14 11:02:00,81.1,57.1,30.05,South,180,4.7,-999.0,44,-99.99,,,0.00,Acu-Link.com,2013-05-14 15:02:00,
2013-05-14 11:17:00,83.1,56.9,30.05,ESE,112,2.2,-999.0,41,-99.99,,,0.00,Acu-Link.com,2013-05-14 15:17:00,
2013-05-14 11:32:00,84.0,59.1,30.04,ESE,112,0.0,-999.0,43,-99.99,,,0.00,Acu-Link.com,2013-05-14 15:32:00,
2013-05-14 11:47:00,81.1,57.7,30.05,WNW,292,0.0,-999.0,45,-99.99,,,0.00,Acu-Link.com,2013-05-14 15:47:00,
2013-05-14 12:02:00,82.9,58.1,30.05,ESE,112,1.1,-999.0,43,-99.99,,,0.00,Acu-Link.com,2013-05-14 16:02:00,
2013-05-14 12:17:00,85.5,59.1,30.05,SE,135,4.2,-999.0,41,-99.99,,,0.00,Acu-Link.com,2013-05-14 16:17:00,
2013-05-14 12:33:00,84.6,58.9,30.04,ESE,112,4.2,-999.0,42,-99.99,,,0.00,Acu-Link.com,2013-05-14 16:33:00,
2013-05-14 12:48:00,82.8,59.9,30.05,ESE,112,1.7,-999.0,46,-99.99,,,0.00,Acu-Link.com,2013-05-14 16:48:00,
2013-05-14 13:03:00,84.9,58.5,30.04,SE,135,1.7,-999.0,41,-99.99,,,0.00,Acu-Link.com,2013-05-14 17:03:00,
2013-05-14 13:18:00,86.9,61.0,30.04,East,90,0.0,-999.0,42,-99.99,,,0.00,Acu-Link.com,2013-05-14 17:18:00,
2013-05-14 13:33:00,85.1,59.4,30.04,SSE,157,3.2,-999.0,42,-99.99,,,0.00,Acu-Link.com,2013-05-14 17:33:00,
2013-05-14 13:49:00,84.2,60.5,30.03,West,270,1.7,-999.0,45,-99.99,,,0.00,Acu-Link.com,2013-05-14 17:49:00,
2013-05-14 14:04:00,85.8,60.0,30.03,ESE,112,3.7,-999.0,42,-99.99,,,0.00,Acu-Link.com,2013-05-14 18:04:00,
2013-05-14 14:19:00,85.1,60.1,30.03,WNW,292,2.7,-999.0,43,-99.99,,,0.00,Acu-Link.com,2013-05-14 18:19:00,
2013-05-14 14:34:00,82.4,58.9,30.03,West,270,5.8,-999.0,45,-99.99,,,0.00,Acu-Link.com,2013-05-14 18:34:00,
2013-05-14 14:50:00,83.5,59.3,30.03,ESE,112,4.2,-999.0,44,-99.99,,,0.00,Acu-Link.com,2013-05-14 18:50:00,
2013-05-14 15:05:00,84.2,59.9,30.02,NNE,22,4.2,-999.0,44,-99.99,,,0.00,Acu-Link.com,2013-05-14 19:05:00,
2013-05-14 15:20:00,83.1,60.1,30.01,WNW,292,2.2,-999.0,46,-99.99,,,0.00,Acu-Link.com,2013-05-14 19:20:00,
2013-05-14 15:36:00,83.5,59.9,30.02,SE,135,2.2,-999.0,45,-99.99,,,0.00,Acu-Link.com,2013-05-14 19:36:00,
2013-05-14 15:51:00,82.2,59.3,30.01,East,90,6.3,-999.0,46,-99.99,,,0.00,Acu-Link.com,2013-05-14 19:51:00,
2013-05-14 16:06:00,79.7,58.8,30.00,ESE,112,1.7,-999.0,49,-99.99,,,0.00,Acu-Link.com,2013-05-14 20:06:00,
2013-05-14 16:21:00,81.9,59.7,30.01,ENE,67,2.2,-999.0,47,-99.99,,,0.00,Acu-Link.com,2013-05-14 20:21:00,
2013-05-14 16:37:00,82.8,59.9,30.00,ESE,112,2.2,-999.0,46,-99.99,,,0.00,Acu-Link.com,2013-05-14 20:37:00,
2013-05-14 16:52:00,82.8,59.3,30.01,ESE,112,2.7,-999.0,45,-99.99,,,0.00,Acu-Link.com,2013-05-14 20:52:00,
2013-05-14 17:07:00,82.0,58.5,30.01,ESE,112,4.7,-999.0,45,-99.99,,,0.00,Acu-Link.com,2013-05-14 21:07:00,
2013-05-14 17:22:00,81.9,58.4,30.00,ESE,112,3.7,-999.0,45,-99.99,,,0.00,Acu-Link.com,2013-05-14 21:22:00,
2013-05-14 17:37:00,84.0,57.7,30.00,NNE,22,3.2,-999.0,41,-99.99,,,0.00,Acu-Link.com,2013-05-14 21:37:00,
2013-05-14 17:53:00,82.8,57.3,30.00,East,90,1.7,-999.0,42,-99.99,,,0.00,Acu-Link.com,2013-05-14 21:53:00,
2013-05-14 18:08:00,82.6,58.5,30.00,SE,135,2.2,-999.0,44,-99.99,,,0.00,Acu-Link.com,2013-05-14 22:08:00,
2013-05-14 18:23:00,83.5,58.6,29.99,SE,135,2.7,-999.0,43,-99.99,,,0.00,Acu-Link.com,2013-05-14 22:23:00,
2013-05-14 18:38:00,80.8,56.8,29.99,ESE,112,2.7,-999.0,44,-99.99,,,0.00,Acu-Link.com,2013-05-14 22:38:00,
2013-05-14 18:53:00,79.7,57.1,29.99,ENE,67,2.7,-999.0,46,-99.99,,,0.00,Acu-Link.com,2013-05-14 22:53:00,
2013-05-14 19:08:00,78.6,56.7,29.99,ESE,112,2.7,-999.0,47,-99.99,,,0.00,Acu-Link.com,2013-05-14 23:08:00,
2013-05-14 19:24:00,75.6,56.2,30.00,ESE,112,2.2,-999.0,51,-99.99,,,0.00,Acu-Link.com,2013-05-14 23:24:00,
2013-05-14 19:39:00,74.3,56.0,29.99,SE,135,1.7,-999.0,53,-99.99,,,0.00,Acu-Link.com,2013-05-14 23:39:00,
2013-05-14 19:54:00,73.0,55.4,30.00,SE,135,0.0,-999.0,54,-99.99,,,0.00,Acu-Link.com,2013-05-14 23:54:00,
2013-05-14 20:10:00,71.8,55.7,30.00,ESE,112,0.0,-999.0,57,-99.99,,,0.00,Acu-Link.com,2013-05-15 00:10:00,
2013-05-14 20:25:00,70.9,55.4,30.00,SE,135,0.0,-999.0,58,-99.99,,,0.00,Acu-Link.com,2013-05-15 00:25:00,
2013-05-14 20:40:00,69.8,55.3,30.01,SE,135,0.0,-999.0,60,-99.99,,,0.00,Acu-Link.com,2013-05-15 00:40:00,
2013-05-14 20:55:00,69.1,55.1,30.01,West,270,0.0,-999.0,61,-99.99,,,0.00,Acu-Link.com,2013-05-15 00:55:00,
2013-05-14 21:11:00,67.8,54.7,30.01,West,270,0.0,-999.0,63,-99.99,,,0.00,Acu-Link.com,2013-05-15 01:11:00,
2013-05-14 21:26:00,67.1,54.5,30.01,SSE,157,0.0,-999.0,64,-99.99,,,0.00,Acu-Link.com,2013-05-15 01:26:00,
2013-05-14 21:41:00,66.0,54.3,30.02,SE,135,0.0,-999.0,66,-99.99,,,0.00,Acu-Link.com,2013-05-15 01:41:00,
2013-05-14 21:56:00,65.1,54.3,30.03,SE,135,0.0,-999.0,68,-99.99,,,0.00,Acu-Link.com,2013-05-15 01:56:00,
2013-05-14 22:12:00,64.2,53.8,30.03,SE,135,0.0,-999.0,69,-99.99,,,0.00,Acu-Link.com,2013-05-15 02:12:00,
2013-05-14 22:27:00,63.7,54.5,30.04,SE,135,0.0,-999.0,72,-99.99,,,0.00,Acu-Link.com,2013-05-15 02:27:00,
2013-05-14 22:42:00,63.3,54.9,30.04,SE,135,0.0,-999.0,74,-99.99,,,0.00,Acu-Link.com,2013-05-15 02:42:00,
2013-05-14 22:58:00,62.8,55.1,30.04,SE,135,0.0,-999.0,76,-99.99,,,0.00,Acu-Link.com,2013-05-15 02:58:00,
2013-05-14 23:13:00,62.4,54.7,30.04,SE,135,0.0,-999.0,76,-99.99,,,0.00,Acu-Link.com,2013-05-15 03:13:00,
2013-05-14 23:28:00,61.9,54.6,30.05,South,180,0.0,-999.0,77,-99.99,,,0.00,Acu-Link.com,2013-05-15 03:28:00,
2013-05-14 23:43:00,61.5,54.9,30.04,South,180,0.0,-999.0,79,-99.99,,,0.00,Acu-Link.com,2013-05-15 03:43:00,
2013-05-14 23:58:00,61.3,54.7,30.05,South,180,0.0,-999.0,79,-99.99,,,0.00,Acu-Link.com,2013-05-15 03:58:00,